{"data":{"norad_id":45145,"epoch":"2026-05-25T03:03:14.281632Z","epoch_age_seconds":77731,"freshness":"FRESH","line1":"1 45145U 20008Q   26145.12724863  .00000406  00000+0  11086-2 0  9997","line2":"2 45145  87.8923  25.6620 0002188  32.6163 327.5100 13.11414097307301","mean_motion":13.11414097,"eccentricity":0.0002188,"inclination_deg":87.8923,"raan_deg":25.662,"arg_perigee_deg":32.6163,"mean_anomaly_deg":327.51,"bstar":0.0011086,"rev_number":30730,"period_min":109.80513350391,"perigee_km":1216.0317278491,"apogee_km":1219.3556633615,"semimajor_km":7595.8306956053,"source":"CELESTRAK","updated_at":"2026-05-25T13:38:22.335895Z"}}